COSMOS 2024 (ETALON 2)

Last updated on Fri Sep 04 2026 00:03:35 GMT+0000 (Coordinated Universal Time)

1 20026U 89039C 26246.42341149 -.00000024 00000+0 00000+0 0 9992 2 20026 64.8826 307.8374 0020882 212.2001 199.2290 2.13204546290174
UTC large
Height (km)
Speed (km/s)
/
Latitude / Longitude
Inclination (degrees)
Orbital Period (minutes)
Azimuth
Elevation
Range (km)
Doppler Factor

Next 0 passes for location: London (51.5072 / 0.1276)

No passes found over London.
COSMOS 2024 (ETALON 2)